Regional Weather Roundup
Issued by NWS

Home | Current Version | Previous Version | Graphics & Text | Print | Product List | Glossary On
Versions: 1 2 3 4 5 6 7 8 9 10 11 12 13 14 15 16 17 18 19 20 21 22 23 24 25 26 27 28 29 30 31 32 33 34 35 36 37 38 39 40 41 42 43 44 45 46 47 48 49 50
000
ASUS43 KBIS 250302
RWRND

NORTH DAKOTA REGIONAL WEATHER ROUNDUP
NATIONAL WEATHER SERVICE BISMARCK ND
1000 PM CDT WED AUG 24 2016

NOTE: "FAIR" INDICATES FEW OR NO CLOUDS BELOW 12,000 FEET WITH NO
SIGNIFICANT WEATHER AND/OR OBSTRUCTIONS TO VISIBILITY.


NDZ001>003-009>011-017-250400-
NORTHWEST NORTH DAKOTA

CITY           SKY/WX    TMP DP  RH WIND       PRES   REMARKS
WILLISTON      CLOUDY    57  47  69 NW17G24   30.13R
MINOT          CLOUDY    59  52  77 W17G26    30.00R
MINOT AFB      PTCLDY    55  53  90 W15       29.99R
$$

NDZ018>021-031>035-040>046-250400-
SOUTHWEST NORTH DAKOTA

CITY           SKY/WX    TMP DP  RH WIND       PRES   REMARKS
BISMARCK       CLEAR     60  48  64 W12       30.07R
DICKINSON      CLEAR     53  45  74 W15       30.14R
GARRISON         N/A     56  52  86 W14       30.04R
HETTINGER ARPT CLOUDY    59  44  57 W15       30.18R
$$

NDZ004>008-012>016-024-026-027-054-250400-
NORTHEAST NORTH DAKOTA

CITY           SKY/WX    TMP DP  RH WIND       PRES   REMARKS
GRAND FORKS    PTCLDY    62  52  69 SW10      29.91R
GRND FRKS AFB  PTCLDY    60  53  76 SW8       29.92R
DEVILS LAKE    CLEAR     62  52  69 W20       29.93S
$$

NDZ022-023-025-028>030-036>039-047>053-250400-
SOUTHEAST NORTH DAKOTA

CITY           SKY/WX    TMP DP  RH WIND       PRES   REMARKS
FARGO          CLEAR     63  53  70 SW7       29.96R
JAMESTOWN      CLEAR     62  51  67 W13       29.99R
$$





USA.gov is the U.S. government's official web portal to all federal, state and local government web resources and services.